map of BVI home
Great Circle Mapper logo
BVI - Airport
Location
City:  Birdsville, Queensland, Australia
ICAO / IATA:YBDV / BVI

Details
Type:Airport (Aerodrome, Airfield)
Latitude:2553'51"S (-25.897499)
Longitude:13920'51"E (139.347500)
Datum:WGS 1984
Elevation:159 ft (48 m)
Variation:6.58E (WMM2015 magnetic declination)
-0.04 annual change
Runways:2
Longest:5682 × 98 ft (1732 × 30 m), paved

Time
Time Zone:UTC+10
Local Time:

Weather
METAR:YBDV 030800Z AUTO 22010KT //// // ////// 22/05 Q1020

Related Locations
Nearby:
Farthest:FLW: 11349 mi / 18264 km
Flores Island [Santa Cruz], Azores, PT

Find:

   beyond  
but within

Other Information
Maps:
NOTAMs:
Links:
Sources:

  
flag of Australia
flag of Queensland
  

Sectional Chart

Flight Planning
at skyvector.com

Satellite Image

Google Maps Satellite view

 

Copyright © 2004-2015 Karl L. Swartz. All rights reserved.
The Great Circle Mapper name and logo are trademarks of the Great Circle Mapper.
All other trademarks mentioned herein belong to their respective owners.
Please see credits for attibutions and further copyright information.

  Follow gcmap on Facebook Follow gcmap on Twitter Follow gcmap on Google+

hCard Microformat

Geo Microformat